Tracking 19846 objects as of 18-Sep-2019
HD Live streaming from Space Station
objects crossing your sky now

FENGYUN 1C DEB

Track FENGYUN 1C DEB now!
10-day predictions


NORAD ID: 35139
Int'l Code: 1999-025DLT
Perigee: 789.1 km
Apogee: 893.0 km
Inclination: 98.7 °
Period: 101.6 minutes
Semi major axis: 7212 km
RCS: 0.0145 m2 (small)
Launch date: May 10, 1999
Source: People's Republic of China (PRC)
Launch site: Taiyaun Space Center, China (TSC)

Note: This is SATELLITE DEBRIS
aabbcc
Your satellite tracking list
Your tracking list is empty




NASA's NSSDC Master Catalog

Two Line Element Set (TLE):
1 35139U 99025DLT 19257.93428706  .00000098  00000-0  67864-4 0  9991
2 35139  98.7475 288.7841 0072030  26.9757 333.5134 14.17484749590677
Source of the keplerian elements: AFSPC